Port Aransas, TX

5:58 PM CST on January 17, 2017 (GMT -0600)
Port Aransas

Weather History for KRAS - September, 2013

Change the Weather History Date:

Monday, September 23, 2013

  Actual Average (KNGP) Record (KNGP)
Temperature  
Mean Temperature 78 °F -  
Max Temperature 82 °F 85 °F 98 °F (2005)
Min Temperature 73 °F 70 °F 57 °F (1999)
Cooling Degree Days 12    
Growing Degree Days 28 (Base 50)    
Moisture  
Dew Point 70 °F    
Average Humidity 77    
Maximum Humidity 86    
Minimum Humidity 69    
Precipitation  
Precipitation 0.00 in - - ()
Sea Level Pressure  
Sea Level Pressure 29.75 in    
Wind  
Wind Speed 9 mph (North)    
Max Wind Speed 20 mph    
Max Gust Speed 24 mph    
Visibility 10 miles    
Events      
Averages and records for this station are not official NWS values.
T = Trace of Precipitation, MM = Missing Value Source: NWS Daily Summary

Daily Weather History Graph

Daily Weather History Graph

Search for Another Location

Airport or City:

Trip Planner

Search our weather history database for the weather conditions in past years. The results will help you decide how hot, cold, wet, or windy it might be!

Date:

Astronomy

Sep. 23, 2013 Rise Set
Actual Time 7:17 AM CDT 7:23 PM CDT
Civil Twilight 6:54 AM CDT 7:46 PM CDT
Nautical Twilight 6:26 AM CDT 8:13 PM CDT
Astronomical Twilight 5:59 AM CDT 8:41 PM CDT
Moon 10:20 PM CDT (9/23) 11:14 AM CDT (9/23)
Length of Visible Light 12h 52m
Length of Day
12h 05m
Waning Gibbous, 81% of the Moon is Illuminated
Sep 23
Waning Gibbous
Sep 26
Last Quarter
Oct 4
New
Oct 11
First Quarter
Oct 18
Full

Hourly Weather History & Observations

Time (CDT) Temp. Heat Index Dew Point Humidity Pressure Visibility Wind Dir Wind Speed Gust Speed Precip Events Conditions
12:15 AM 77.9 °F - 68.0 °F 71% 29.77 in 10.0 mi NE 8.1 mph - N/A   Scattered Clouds
12:35 AM 77.2 °F - 68.4 °F 74% 29.76 in 10.0 mi NNE 6.9 mph - N/A   Scattered Clouds
12:55 AM 75.7 °F - 69.8 °F 82% 29.76 in 10.0 mi NNE 5.8 mph - N/A   Clear
1:15 AM 75.7 °F - 70.0 °F 82% 29.76 in 10.0 mi NNE 8.1 mph - N/A   Clear
1:35 AM 75.4 °F - 69.4 °F 82% 29.75 in 10.0 mi North 6.9 mph - N/A   Scattered Clouds
1:55 AM 75.2 °F - 68.9 °F 81% 29.75 in 10.0 mi NNE 6.9 mph - N/A   Clear
2:15 AM 75.0 °F - 68.4 °F 80% 29.75 in 10.0 mi NNE 6.9 mph - N/A   Clear
2:35 AM 75.2 °F - 68.0 °F 78% 29.75 in 10.0 mi NNE 8.1 mph - N/A   Clear
2:55 AM 74.8 °F - 69.3 °F 83% 29.75 in 10.0 mi North 5.8 mph - N/A   Clear
3:15 AM 74.8 °F - 69.6 °F 84% 29.75 in 10.0 mi North 6.9 mph - N/A   Clear
3:35 AM 74.3 °F - 69.8 °F 86% 29.74 in 10.0 mi North 5.8 mph - N/A   Clear
3:55 AM 73.9 °F - 68.9 °F 84% 29.74 in 10.0 mi North 6.9 mph - N/A   Clear
4:15 AM 73.8 °F - 68.5 °F 84% 29.74 in 10.0 mi North 8.1 mph - N/A   Clear
4:35 AM 74.1 °F - 68.7 °F 83% 29.74 in 10.0 mi North 9.2 mph - N/A   Clear
4:55 AM 73.9 °F - 68.2 °F 82% 29.74 in 10.0 mi North 8.1 mph - N/A   Clear
5:15 AM 73.8 °F - 68.2 °F 83% 29.74 in 10.0 mi North 8.1 mph - N/A   Clear
5:35 AM 73.8 °F - 68.0 °F 82% 29.74 in 10.0 mi North 9.2 mph - N/A   Scattered Clouds
5:55 AM 73.8 °F - 67.5 °F 81% 29.74 in 10.0 mi North 10.4 mph - N/A   Mostly Cloudy
6:15 AM 73.8 °F - 68.0 °F 82% 29.74 in 10.0 mi NNW 12.7 mph - N/A   Mostly Cloudy
6:35 AM 73.0 °F - 67.5 °F 83% 29.74 in 10.0 mi North 11.5 mph - N/A   Scattered Clouds
6:55 AM 73.0 °F - 67.1 °F 82% 29.75 in 10.0 mi North 10.4 mph - N/A   Scattered Clouds
7:15 AM 73.2 °F - 66.9 °F 81% 29.75 in 10.0 mi North 10.4 mph - N/A   Scattered Clouds
7:35 AM 73.2 °F - 66.2 °F 79% 29.75 in 10.0 mi North 10.4 mph - N/A   Overcast
7:55 AM 74.3 °F - 66.2 °F 76% 29.75 in 10.0 mi North 12.7 mph - N/A   Overcast
8:15 AM 74.8 °F - 65.5 °F 73% 29.75 in 10.0 mi NNE 13.8 mph 19.6 mph N/A   Scattered Clouds
8:35 AM 75.2 °F - 65.8 °F 73% 29.75 in 10.0 mi NNE 19.6 mph 23.0 mph N/A   Clear
8:55 AM 75.2 °F - 67.1 °F 76% 29.75 in 10.0 mi NNE 19.6 mph - N/A   Clear
9:15 AM 75.2 °F - 67.6 °F 77% 29.76 in 10.0 mi NNE 17.3 mph 24.2 mph N/A   Clear
9:35 AM 75.6 °F - 67.8 °F 77% 29.77 in 10.0 mi NNE 17.3 mph - N/A   Clear
9:55 AM 76.5 °F - 67.6 °F 74% 29.78 in 10.0 mi North 11.5 mph - N/A   Clear
10:15 AM 77.0 °F - 68.4 °F 75% 29.78 in 10.0 mi NNW 13.8 mph - N/A   Clear
10:35 AM 77.0 °F - 68.4 °F 75% 29.79 in 10.0 mi North 13.8 mph - N/A   Scattered Clouds
10:55 AM 77.0 °F - 68.2 °F 74% 29.79 in 10.0 mi North 13.8 mph - N/A   Overcast
11:15 AM 77.5 °F - 68.5 °F 74% 29.79 in 10.0 mi North 8.1 mph - N/A   Overcast
11:35 AM 79.0 °F - 69.1 °F 72% 29.79 in 10.0 mi NNW 10.4 mph - N/A   Mostly Cloudy
11:55 AM 79.3 °F - 69.1 °F 71% 29.79 in 10.0 mi North 11.5 mph - N/A   Overcast
12:15 PM 79.9 °F - 69.3 °F 70% 29.79 in 10.0 mi North 10.4 mph - N/A   Overcast
12:35 PM 80.2 °F 83.3 °F 69.8 °F 70% 29.78 in 10.0 mi North 10.4 mph - N/A   Overcast
1:15 PM 81.7 °F 85.6 °F 70.7 °F 69% 29.77 in 10.0 mi NNW 12.7 mph - N/A   Mostly Cloudy
1:35 PM 82.0 °F 86.5 °F 71.2 °F 70% 29.76 in 10.0 mi North 10.4 mph 16.1 mph N/A   Mostly Cloudy
1:55 PM 81.5 °F 85.9 °F 71.6 °F 72% 29.76 in 10.0 mi North 9.2 mph - N/A   Overcast
2:15 PM 82.4 °F 87.2 °F 71.6 °F 70% 29.75 in 10.0 mi North 10.4 mph - N/A   Overcast
2:35 PM 82.2 °F 86.9 °F 71.4 °F 70% 29.75 in 10.0 mi NNE 12.7 mph - N/A   Overcast
2:55 PM 81.3 °F 85.2 °F 70.9 °F 70% 29.75 in 10.0 mi NNE 10.4 mph - N/A   Overcast
3:15 PM 81.5 °F 85.7 °F 71.2 °F 71% 29.74 in 10.0 mi NE 13.8 mph - N/A   Overcast
3:35 PM 81.7 °F 85.8 °F 71.2 °F 70% 29.74 in 10.0 mi NNE 10.4 mph - N/A   Overcast
3:55 PM 81.9 °F 86.4 °F 71.6 °F 71% 29.73 in 10.0 mi NNE 10.4 mph - N/A   Overcast
4:15 PM 81.7 °F 86.3 °F 71.8 °F 72% 29.73 in 10.0 mi NNE 10.4 mph - N/A   Overcast
4:35 PM 82.2 °F 87.1 °F 72.0 °F 71% 29.73 in 10.0 mi NNE 10.4 mph - N/A   Overcast
4:55 PM 82.0 °F 86.7 °F 71.8 °F 71% 29.73 in 10.0 mi North 9.2 mph - N/A   Overcast
5:15 PM 82.8 °F 87.9 °F 72.0 °F 70% 29.73 in 10.0 mi NNE 8.1 mph - N/A   Overcast
5:35 PM 82.6 °F 87.8 °F 72.3 °F 71% 29.72 in 10.0 mi North 6.9 mph - N/A   Overcast
5:55 PM 82.0 °F 87.0 °F 72.3 °F 72% 29.72 in 10.0 mi North 6.9 mph - N/A   Overcast
6:15 PM 81.9 °F 86.6 °F 72.1 °F 72% 29.72 in 10.0 mi North 4.6 mph - N/A   Overcast
6:35 PM 81.9 °F 86.6 °F 72.0 °F 72% 29.73 in 10.0 mi North 5.8 mph - N/A   Overcast
6:55 PM 81.9 °F 86.8 °F 72.3 °F 73% 29.73 in 10.0 mi NNE 4.6 mph - N/A   Overcast
7:15 PM 81.7 °F 86.7 °F 72.5 °F 74% 29.73 in 10.0 mi NNE 5.8 mph - N/A   Overcast
7:35 PM 81.5 °F 86.3 °F 72.7 °F 74% 29.73 in 10.0 mi North 3.5 mph - N/A   Mostly Cloudy
7:55 PM 80.8 °F 85.4 °F 72.9 °F 77% 29.74 in 10.0 mi North 5.8 mph - N/A   Mostly Cloudy
8:15 PM 81.0 °F 85.6 °F 72.7 °F 76% 29.74 in 10.0 mi North 5.8 mph - N/A   Overcast
8:35 PM 80.6 °F 85.0 °F 72.9 °F 77% 29.75 in 10.0 mi North 4.6 mph - N/A   Mostly Cloudy
8:55 PM 80.6 °F 85.5 °F 73.9 °F 80% 29.75 in 10.0 mi North 3.5 mph - N/A   Scattered Clouds
9:15 PM 79.9 °F - 73.4 °F 80% 29.76 in 10.0 mi North 3.5 mph - N/A   Scattered Clouds
9:35 PM 79.9 °F - 73.8 °F 81% 29.76 in 10.0 mi North 5.8 mph - N/A   Scattered Clouds
9:55 PM 79.9 °F - 74.3 °F 83% 29.77 in 10.0 mi North 3.5 mph - N/A   Mostly Cloudy
10:15 PM 79.7 °F - 73.8 °F 82% 29.78 in 10.0 mi North 3.5 mph - N/A   Mostly Cloudy
10:35 PM 79.7 °F - 73.8 °F 82% 29.78 in 10.0 mi North 4.6 mph - N/A   Scattered Clouds
10:55 PM 79.3 °F - 73.8 °F 83% 29.79 in 10.0 mi North 4.6 mph - N/A   Clear
11:15 PM 79.5 °F - 73.8 °F 82% 29.79 in 10.0 mi NW 3.5 mph - N/A   Clear
11:35 PM 79.7 °F - 73.6 °F 81% 29.79 in 10.0 mi WNW 4.6 mph - N/A   Scattered Clouds
11:55 PM 79.3 °F - 73.4 °F 82% 29.80 in 10.0 mi WNW 3.5 mph - N/A   Scattered Clouds